Weather History for Newton, KS

Change the Weather History Date:

Sunday, March 24, 2013

  Actual Average Record
Temperature  
Mean Temperature 28 °F -  
Max Temperature 32 °F 56 °F 73 °F (1997)
Min Temperature 23 °F 35 °F 21 °F (2006)
Degree Days  
Heating Degree Days 38    
Moisture  
Dew Point 19 °F    
Average Humidity 70    
Maximum Humidity 86    
Minimum Humidity 55    
Precipitation  
Precipitation 0.02 in - - ()
Sea Level Pressure  
Sea Level Pressure 30.05 in    
Wind  
Wind Speed 23 mph (NNW)    
Max Wind Speed 32 mph    
Max Gust Speed 40 mph    
Visibility 7 miles    
Events      
Averages and records for this station are not official NWS values.
T = Trace of Precipitation, MM = Missing Value Source: NWS Daily Summary

Daily Weather History Graph

Daily Weather History Graph

Search for Another Location

Airport:

Trip Planner

Search our weather history database for the weather conditions in past years. The results will help you decide how hot, cold, wet, or windy it might be!

Date:

Astronomy

Mar. 24, 2013 Rise Set
Actual Time 7:26 AM CDT 7:45 PM CDT
Civil Twilight 6:59 AM CDT 8:11 PM CDT
Nautical Twilight 6:28 AM CDT 8:42 PM CDT
Astronomical Twilight 5:57 AM CDT 9:13 PM CDT
Moon 5:16 PM CDT (3/24) 5:34 AM CDT (3/24)
Length of Visible Light 13h 11m
Length of Day
12h 18m
Waxing Gibbous, 92% of the Moon is Illuminated
Mar 24
Waxing Gibbous
Mar 27
Full
Apr 2
Last Quarter
Apr 10
New
Apr 18
First Quarter

Hourly Weather History & Observations

Time (CDT) Temp. Windchill Dew Point Humidity Pressure Visibility Wind Dir Wind Speed Gust Speed Precip Events Conditions
12:15 AM 28.4 °F 14.7 °F 24.8 °F 86% 29.92 in 1.0 mi North 21.9 mph 28.8 mph N/A   Overcast
12:35 AM 28.4 °F 15.1 °F 24.8 °F 86% 29.92 in 1.2 mi North 20.7 mph - N/A   Overcast
12:55 AM 28.4 °F 14.1 °F 24.8 °F 86% 29.93 in 1.0 mi North 24.2 mph 32.2 mph N/A   Overcast
1:15 AM 28.4 °F 13.8 °F 24.8 °F 86% 29.94 in 0.8 mi NNW 25.3 mph 29.9 mph N/A   Overcast
1:35 AM 28.4 °F 13.5 °F 24.8 °F 86% 29.95 in 0.8 mi North 26.5 mph 33.4 mph N/A   Overcast
1:55 AM 28.4 °F 13.5 °F 24.8 °F 86% 29.95 in 0.8 mi North 26.5 mph 34.5 mph N/A   Overcast
2:35 AM 28.4 °F 14.1 °F 23.0 °F 80% 29.94 in 0.8 mi North 24.2 mph 28.8 mph N/A   Overcast
2:55 AM 28.4 °F 13.0 °F 23.0 °F 80% 29.94 in 0.8 mi North 28.8 mph 33.4 mph N/A   Overcast
3:15 AM 26.6 °F 10.8 °F 23.0 °F 86% 29.93 in 1.0 mi North 27.6 mph 35.7 mph N/A   Overcast
3:35 AM 26.6 °F 10.3 °F 23.0 °F 86% 29.93 in 0.8 mi North 29.9 mph 39.1 mph N/A   Overcast
3:55 AM 26.6 °F 10.3 °F 21.2 °F 80% 29.93 in 1.0 mi North 29.9 mph 38.0 mph N/A   Overcast
4:15 AM 26.6 °F 10.6 °F 21.2 °F 80% 29.93 in 1.0 mi North 28.8 mph 36.8 mph N/A   Overcast
4:35 AM 26.6 °F 10.6 °F 23.0 °F 86% 29.94 in 0.8 mi North 28.8 mph - N/A   Overcast
4:55 AM 26.6 °F 11.7 °F 21.2 °F 80% 29.94 in 0.8 mi North 24.2 mph 35.7 mph N/A   Overcast
5:15 AM 26.6 °F 10.6 °F 23.0 °F 86% 29.94 in 1.0 mi North 28.8 mph 38.0 mph N/A   Overcast
5:35 AM 28.4 °F 12.3 °F 23.0 °F 80% 29.95 in 1.0 mi North 32.2 mph 39.1 mph N/A   Overcast
5:55 AM 26.6 °F 10.3 °F 21.2 °F 80% 29.96 in 0.8 mi North 29.9 mph 38.0 mph N/A   Overcast
6:15 AM 24.8 °F 7.3 °F 19.4 °F 80% 29.97 in 1.2 mi North 32.2 mph 40.3 mph N/A   Overcast
6:35 AM 24.8 °F 8.4 °F 19.4 °F 80% 29.98 in 1.5 mi North 27.6 mph 34.5 mph N/A   Overcast
6:55 AM 24.8 °F 9.0 °F 19.4 °F 80% 29.99 in 2.0 mi NNW 25.3 mph 33.4 mph N/A   Overcast
7:15 AM 24.8 °F 9.0 °F 17.6 °F 74% 29.99 in 1.8 mi NNW 25.3 mph 33.4 mph N/A   Overcast
7:35 AM 23.0 °F 6.6 °F 17.6 °F 80% 30.00 in 1.2 mi NNW 25.3 mph 35.7 mph N/A   Overcast
7:55 AM 23.0 °F 7.6 °F 17.6 °F 80% 30.01 in 1.5 mi NNW 21.9 mph 32.2 mph 0.01 in   Overcast
8:15 AM 23.0 °F 7.6 °F 17.6 °F 80% 30.02 in 1.5 mi NNW 21.9 mph 33.4 mph N/A   Overcast
8:35 AM 23.0 °F 7.6 °F 17.6 °F 80% 30.03 in 1.8 mi NNW 21.9 mph 31.1 mph N/A   Overcast
8:55 AM 23.0 °F 8.3 °F 17.6 °F 80% 30.05 in 2.0 mi NNW 19.6 mph 28.8 mph N/A   Overcast
9:15 AM 23.0 °F 7.2 °F 17.6 °F 80% 30.05 in 7.0 mi NNW 23.0 mph 28.8 mph N/A   Mostly Cloudy
9:35 AM 24.8 °F 10.3 °F 17.6 °F 74% 30.05 in 10.0 mi NNW 20.7 mph 31.1 mph N/A   Clear
9:55 AM 24.8 °F 9.6 °F 15.8 °F 69% 30.06 in 10.0 mi NNW 23.0 mph 29.9 mph N/A   Clear
10:15 AM 24.8 °F 10.3 °F 15.8 °F 69% 30.06 in 10.0 mi NNW 20.7 mph 31.1 mph N/A   Clear
10:35 AM 24.8 °F 10.7 °F 15.8 °F 69% 30.08 in 8.0 mi NNW 19.6 mph 25.3 mph N/A   Clear
10:55 AM 24.8 °F 10.0 °F 15.8 °F 69% 30.08 in 10.0 mi NNW 21.9 mph 26.5 mph N/A   Partly Cloudy
11:15 AM 24.8 °F 10.3 °F 15.8 °F 69% 30.09 in 10.0 mi NNW 20.7 mph 32.2 mph N/A   Mostly Cloudy
11:35 AM 24.8 °F 9.6 °F 15.8 °F 69% 30.09 in 10.0 mi NNW 23.0 mph 28.8 mph N/A   Overcast
11:55 AM 24.8 °F 9.6 °F 15.8 °F 69% 30.09 in 10.0 mi NNW 23.0 mph 32.2 mph N/A   Scattered Clouds
12:15 PM 26.6 °F 11.7 °F 15.8 °F 64% 30.10 in 10.0 mi NNW 24.2 mph 31.1 mph N/A   Clear
12:35 PM 26.6 °F 12.7 °F 15.8 °F 64% 30.10 in 10.0 mi NNW 20.7 mph 31.1 mph N/A   Clear
12:55 PM 26.6 °F 11.7 °F 15.8 °F 64% 30.10 in 10.0 mi NNW 24.2 mph 31.1 mph N/A   Clear
1:15 PM 28.4 °F 14.1 °F 15.8 °F 59% 30.10 in 10.0 mi NNW 24.2 mph 32.2 mph N/A   Clear
1:35 PM 28.4 °F 14.1 °F 15.8 °F 59% 30.11 in 10.0 mi NNW 24.2 mph 31.1 mph 0.01 in   Clear
1:55 PM 28.4 °F 13.8 °F 15.8 °F 59% 30.11 in 10.0 mi NNW 25.3 mph 32.2 mph 0.01 in   Clear
2:15 PM 28.4 °F 15.1 °F 15.8 °F 59% 30.11 in 10.0 mi NNW 20.7 mph 31.1 mph N/A   Clear
2:35 PM 28.4 °F 15.1 °F 15.8 °F 59% 30.10 in 10.0 mi NNW 20.7 mph 29.9 mph N/A   Clear
2:55 PM 28.4 °F 13.8 °F 15.8 °F 59% 30.10 in 10.0 mi NNW 25.3 mph 33.4 mph N/A   Clear
3:15 PM 30.2 °F 16.2 °F 15.8 °F 55% 30.10 in 10.0 mi NNW 25.3 mph 29.9 mph N/A   Clear
3:35 PM 30.2 °F 17.1 °F 15.8 °F 55% 30.09 in 10.0 mi NNW 21.9 mph 32.2 mph N/A   Clear
3:55 PM 30.2 °F 16.2 °F 15.8 °F 55% 30.09 in 10.0 mi NNW 25.3 mph 31.1 mph N/A   Clear
4:15 PM 30.2 °F 15.9 °F 17.6 °F 60% 30.09 in 10.0 mi NW 26.5 mph 33.4 mph N/A   Clear
4:35 PM 30.2 °F 16.8 °F 17.6 °F 60% 30.09 in 10.0 mi NNW 23.0 mph 32.2 mph N/A   Clear
4:55 PM 32.0 °F 18.9 °F 17.6 °F 55% 30.09 in 10.0 mi NNW 24.2 mph 29.9 mph N/A   Clear
5:15 PM 32.0 °F 19.8 °F 17.6 °F 55% 30.09 in 10.0 mi NNW 20.7 mph 28.8 mph N/A   Clear
5:35 PM 32.0 °F 18.6 °F 17.6 °F 55% 30.09 in 10.0 mi NW 25.3 mph 29.9 mph N/A   Clear
5:55 PM 32.0 °F 19.8 °F 17.6 °F 55% 30.10 in 10.0 mi NW 20.7 mph 28.8 mph N/A   Clear
6:15 PM 32.0 °F 19.8 °F 17.6 °F 55% 30.11 in 10.0 mi NW 20.7 mph 27.6 mph N/A   Clear
6:35 PM 32.0 °F 19.2 °F 17.6 °F 55% 30.11 in 10.0 mi NNW 23.0 mph 27.6 mph N/A   Clear
6:55 PM 32.0 °F 19.5 °F 17.6 °F 55% 30.11 in 10.0 mi NW 21.9 mph 26.5 mph N/A   Clear
7:15 PM 30.2 °F 19.8 °F 17.6 °F 60% 30.12 in 10.0 mi NW 13.8 mph 23.0 mph N/A   Clear
7:35 PM 30.2 °F 20.2 °F 17.6 °F 60% 30.12 in 10.0 mi NW 12.7 mph - N/A   Clear
7:55 PM 30.2 °F 20.2 °F 17.6 °F 60% 30.12 in 10.0 mi WNW 12.7 mph - N/A   Clear
8:15 PM 28.4 °F 18.0 °F 17.6 °F 64% 30.12 in 10.0 mi WNW 12.7 mph - N/A   Clear
8:35 PM 28.4 °F 18.0 °F 17.6 °F 64% 30.12 in 10.0 mi WNW 12.7 mph - N/A   Clear
8:55 PM 28.4 °F 18.0 °F 17.6 °F 64% 30.13 in 10.0 mi WNW 12.7 mph - N/A   Clear
9:15 PM 28.4 °F 19.1 °F 17.6 °F 64% 30.13 in 10.0 mi WNW 10.4 mph - N/A   Clear
9:35 PM 26.6 °F 16.2 °F 17.6 °F 69% 30.13 in 10.0 mi WNW 11.5 mph - N/A   Clear
9:55 PM 26.6 °F 16.8 °F 17.6 °F 69% 30.14 in 10.0 mi WNW 10.4 mph - N/A   Clear
10:15 PM 26.6 °F 16.8 °F 17.6 °F 69% 30.14 in 10.0 mi WNW 10.4 mph - N/A   Clear
10:35 PM 26.6 °F 17.5 °F 17.6 °F 69% 30.14 in 10.0 mi WNW 9.2 mph - N/A   Clear
10:55 PM 26.6 °F 17.5 °F 17.6 °F 69% 30.15 in 10.0 mi NW 9.2 mph - N/A   Clear
11:15 PM 26.6 °F 16.2 °F 17.6 °F 69% 30.15 in 10.0 mi NW 11.5 mph - N/A   Partly Cloudy
11:35 PM 24.8 °F 14.0 °F 15.8 °F 69% 30.15 in 10.0 mi North 11.5 mph - N/A   Partly Cloudy
11:55 PM 24.8 °F 14.0 °F 17.6 °F 74% 30.15 in 10.0 mi NNW 11.5 mph - N/A   Partly Cloudy